FBU123 EDDF-EDDH

Flight info

Callsign FBU123
Flight time N/A
Altitude 35000
Route MARUN3W/25C MARUN Y150 TOLGI DCT SAS/N0456F340 P605 NOLGO NOLGO3P
Aircraft A21N/M-SDE2E3FGHIRWXY/LB1

Departure

Time N/A
Airport Frankfurt Main Airport (EDDF)

Arrival

Time 2026-04-23 16:21
Airport Hamburg Helmut Schmidt Airport (EDDH)
Time Latitude Longitude Altitude Speed Heading
2026-04-23 15:37 51.88985 9.33501 35284 ft 437 kts 20°
2026-04-23 15:37 51.93797 9.35977 35284 ft 436 kts 20°
2026-04-23 15:38 52.00570 9.39471 35109 ft 438 kts 20°
2026-04-23 15:38 52.03480 9.40977 34875 ft 439 kts 20°
2026-04-23 15:38 52.06358 9.42468 34630 ft 441 kts 20°
2026-04-23 15:38 52.09317 9.44003 34395 ft 442 kts 20°
2026-04-23 15:39 52.12198 9.45499 33844 ft 441 kts 20°
2026-04-23 15:39 52.15128 9.47022 33137 ft 439 kts 20°
2026-04-23 15:39 52.18027 9.48531 32499 ft 436 kts 20°
2026-04-23 15:39 52.20925 9.50043 31756 ft 437 kts 20°
2026-04-23 15:40 52.23814 9.51552 31029 ft 437 kts 20°
2026-04-23 15:40 52.26722 9.53073 30245 ft 438 kts 20°
2026-04-23 15:40 52.29623 9.54593 29360 ft 439 kts 20°
2026-04-23 15:40 52.32541 9.56123 28411 ft 441 kts 19°
2026-04-23 15:41 52.35350 9.57598 27523 ft 443 kts 20°
2026-04-23 15:41 52.38240 9.59118 26648 ft 443 kts 19°
2026-04-23 15:41 52.41185 9.60669 25858 ft 447 kts 19°
2026-04-23 15:41 52.44173 9.62245 25413 ft 453 kts 19°
2026-04-23 15:42 52.47182 9.63834 24797 ft 454 kts 19°
2026-04-23 15:42 52.50185 9.65421 24208 ft 449 kts 19°
2026-04-23 15:42 52.53130 9.66980 23739 ft 442 kts 19°
2026-04-23 15:42 52.56047 9.68526 22946 ft 438 kts 18°
2026-04-23 15:43 52.58935 9.70060 22169 ft 434 kts 18°
2026-04-23 15:43 52.61799 9.71583 21411 ft 430 kts 18°
2026-04-23 15:43 52.64626 9.73089 20787 ft 423 kts 18°
2026-04-23 15:43 52.67430 9.74584 19974 ft 422 kts 18°
2026-04-23 15:44 52.70199 9.76063 19386 ft 415 kts 18°
2026-04-23 15:44 52.72940 9.77526 18643 ft 413 kts 17°
2026-04-23 15:44 52.75693 9.78817 17891 ft 409 kts 14°
2026-04-23 15:44 52.78426 9.79987 17223 ft 403 kts 14°
2026-04-23 15:45 52.81130 9.81145 16470 ft 399 kts 14°
2026-04-23 15:45 52.83812 9.82310 15909 ft 401 kts 14°
2026-04-23 15:45 52.86491 9.83484 15194 ft 406 kts 14°
2026-04-23 15:45 52.89217 9.84696 14450 ft 403 kts 14°
2026-04-23 15:46 52.91874 9.85893 14092 ft 389 kts 14°
2026-04-23 15:46 52.94462 9.87070 13480 ft 381 kts 14°
2026-04-23 15:46 52.96996 9.88229 12778 ft 376 kts 14°
2026-04-23 15:46 52.99496 9.89375 12089 ft 371 kts 14°
2026-04-23 15:47 53.01972 9.90514 11423 ft 366 kts 14°
2026-04-23 15:47 53.04415 9.91641 10763 ft 363 kts 14°
2026-04-23 15:47 53.06835 9.92763 10268 ft 360 kts 14°
2026-04-23 15:47 53.09244 9.93885 10008 ft 359 kts 14°
2026-04-23 15:48 53.11554 9.94964 9970 ft 358 kts 14°
2026-04-23 15:48 53.13953 9.96086 9970 ft 358 kts 14°
2026-04-23 15:48 53.16344 9.97200 9967 ft 354 kts 14°
2026-04-23 15:48 53.18645 9.98280 9978 ft 338 kts 14°
2026-04-23 15:49 53.20954 9.99370 9964 ft 350 kts 14°
2026-04-23 15:49 53.23227 10.00442 9973 ft 327 kts 14°
2026-04-23 15:49 53.25336 10.01443 9976 ft 305 kts 14°
2026-04-23 15:49 53.27310 10.02392 9974 ft 284 kts 14°
2026-04-23 15:50 53.29155 10.03286 9972 ft 270 kts 14°
2026-04-23 15:50 53.30943 10.04157 10127 ft 268 kts 14°
2026-04-23 15:50 53.32729 10.05028 9887 ft 268 kts 14°
2026-04-23 15:50 53.34498 10.05897 9390 ft 268 kts 14°
2026-04-23 15:51 53.36276 10.06775 8966 ft 265 kts 14°
2026-04-23 15:51 53.38039 10.07648 8537 ft 263 kts 14°
2026-04-23 15:51 53.39776 10.08524 8243 ft 256 kts 16°
2026-04-23 15:51 53.41356 10.09760 8075 ft 247 kts 27°
2026-04-23 15:52 53.42796 10.11257 7840 ft 239 kts 28°
2026-04-23 15:52 53.44181 10.12764 7515 ft 236 kts 29°
2026-04-23 15:52 53.45550 10.14261 7281 ft 234 kts 29°
2026-04-23 15:52 53.46914 10.15754 7284 ft 234 kts 29°
2026-04-23 15:53 53.48275 10.17249 7080 ft 235 kts 29°
2026-04-23 15:53 53.49634 10.18742 6713 ft 233 kts 29°
2026-04-23 15:53 53.50531 10.19725 6465 ft 231 kts 29°
2026-04-23 15:53 53.51869 10.21200 6094 ft 230 kts 29°
2026-04-23 15:54 53.53200 10.22681 5699 ft 229 kts 29°
2026-04-23 15:54 53.54529 10.24158 5325 ft 228 kts 29°
2026-04-23 15:54 53.55852 10.25629 4960 ft 227 kts 29°
2026-04-23 15:54 53.57173 10.27106 4473 ft 230 kts 29°
2026-04-23 15:55 53.58532 10.28620 3945 ft 236 kts 29°
2026-04-23 15:55 53.59897 10.30143 3582 ft 235 kts 29°
2026-04-23 15:55 53.61181 10.31578 3246 ft 231 kts 29°
2026-04-23 15:55 53.62544 10.32953 2977 ft 226 kts 17°
2026-04-23 15:56 53.64055 10.33596 2957 ft 224 kts
2026-04-23 15:56 53.65534 10.33960 2950 ft 223 kts
2026-04-23 15:56 53.67074 10.34306 2954 ft 223 kts
2026-04-23 15:56 53.68617 10.34636 2953 ft 224 kts
2026-04-23 15:57 53.70173 10.34967 2951 ft 225 kts
2026-04-23 15:57 53.71716 10.35415 2940 ft 228 kts 17°
2026-04-23 15:57 53.72931 10.37072 2945 ft 235 kts 55°
2026-04-23 15:57 53.73623 10.39574 2968 ft 231 kts 62°
2026-04-23 15:58 53.74288 10.41986 2959 ft 224 kts 57°
2026-04-23 15:58 53.75061 10.44258 2944 ft 222 kts 52°
2026-04-23 15:58 53.76085 10.46110 2941 ft 212 kts 25°
2026-04-23 15:58 53.77429 10.46640 2936 ft 192 kts 349°
2026-04-23 15:59 53.78582 10.45710 2943 ft 186 kts 313°
2026-04-23 15:59 53.79119 10.43734 2948 ft 192 kts 279°
2026-04-23 15:59 53.79043 10.41437 2946 ft 198 kts 266°
2026-04-23 15:59 53.78803 10.39145 2957 ft 198 kts 264°
2026-04-23 16:00 53.78548 10.36965 2934 ft 190 kts 264°
2026-04-23 16:00 53.78288 10.34918 2945 ft 168 kts 264°
2026-04-23 16:00 53.78042 10.33012 2949 ft 165 kts 264°
2026-04-23 16:00 53.77795 10.31026 2962 ft 189 kts 264°
2026-04-23 16:01 53.77433 10.28715 2952 ft 215 kts 252°
2026-04-23 16:01 53.76706 10.26593 2949 ft 225 kts 239°
2026-04-23 16:01 53.75750 10.24625 2974 ft 203 kts 235°
2026-04-23 16:01 53.74894 10.22934 2957 ft 179 kts 237°
2026-04-23 16:02 53.74101 10.21343 2968 ft 175 kts 238°
2026-04-23 16:02 53.73324 10.19754 2966 ft 175 kts 237°
2026-04-23 16:02 53.72555 10.18167 2869 ft 174 kts 237°
2026-04-23 16:02 53.71790 10.16591 2647 ft 173 kts 237°
2026-04-23 16:03 53.71030 10.15052 2415 ft 165 kts 238°
2026-04-23 16:03 53.70323 10.13620 2171 ft 152 kts 238°
2026-04-23 16:03 53.69672 10.12293 1954 ft 143 kts 239°
2026-04-23 16:03 53.69040 10.11005 1763 ft 143 kts 238°
2026-04-23 16:04 53.68411 10.09723 1567 ft 144 kts 238°
2026-04-23 16:04 53.67773 10.08429 1383 ft 143 kts 237°
2026-04-23 16:04 53.67141 10.07146 1177 ft 140 kts 237°
2026-04-23 16:04 53.66527 10.05904 943 ft 136 kts 238°
2026-04-23 16:05 53.66125 10.05076 804 ft 134 kts 238°
2026-04-23 16:05 53.65327 10.03487 642 ft 134 kts 234°
2026-04-23 16:05 53.64745 10.02273 470 ft 134 kts 236°
2026-04-23 16:05 53.64137 10.01091 267 ft 131 kts 239°
2026-04-23 16:06 53.63577 9.99911 60 ft 128 kts 235°
2026-04-23 16:06 53.62981 9.98716 205 ft 148 kts 236°
2026-04-23 16:06 53.62293 9.97244 530 ft 171 kts 238°
2026-04-23 16:06 53.61499 9.95521 836 ft 203 kts 237°
2026-04-23 16:07 53.60561 9.93491 1247 ft 235 kts 236°
2026-04-23 16:07 53.59494 9.91212 1843 ft 260 kts 235°
2026-04-23 16:07 53.58311 9.88740 2546 ft 280 kts 235°
2026-04-23 16:07 53.57043 9.86155 3237 ft 285 kts 234°
2026-04-23 16:08 53.55828 9.83791 3759 ft 252 kts 233°
2026-04-23 16:08 53.54657 9.81650 4194 ft 249 kts 230°
2026-04-23 16:08 53.53150 9.80175 4382 ft 257 kts 192°
2026-04-23 16:08 53.51358 9.80275 4347 ft 264 kts 163°
2026-04-23 16:09 53.49771 9.81775 4093 ft 261 kts 132°
2026-04-23 16:09 53.48835 9.84298 3840 ft 252 kts 101°
2026-04-23 16:09 53.48761 9.87144 3589 ft 242 kts 71°
2026-04-23 16:09 53.49392 9.89721 3453 ft 236 kts 55°
2026-04-23 16:10 53.50242 9.92101 3492 ft 238 kts 54°
2026-04-23 16:10 53.51105 9.94489 3730 ft 241 kts 54°
2026-04-23 16:10 53.51974 9.96897 3961 ft 240 kts 54°
2026-04-23 16:10 53.52823 9.99264 3991 ft 239 kts 54°
2026-04-23 16:11 53.53678 10.01659 3967 ft 239 kts 54°
2026-04-23 16:11 53.54534 10.04057 3966 ft 239 kts 54°
2026-04-23 16:11 53.55395 10.06463 3968 ft 239 kts 54°
2026-04-23 16:11 53.56283 10.08816 3965 ft 236 kts 47°
2026-04-23 16:12 53.57492 10.10572 3963 ft 226 kts 19°
2026-04-23 16:12 53.58993 10.10955 3964 ft 218 kts 348°
2026-04-23 16:12 53.60383 10.09992 3973 ft 218 kts 332°
2026-04-23 16:12 53.61830 10.09256 3963 ft 220 kts 359°
2026-04-23 16:13 53.63280 10.09951 3966 ft 227 kts 29°
2026-04-23 16:13 53.65438 10.14010 3968 ft 237 kts 49°
2026-04-23 16:13 53.66413 10.16267 3967 ft 238 kts 49°
2026-04-23 16:14 53.67382 10.18525 3727 ft 238 kts 49°
2026-04-23 16:14 53.68352 10.20789 3378 ft 236 kts 49°
2026-04-23 16:14 53.69264 10.23091 3040 ft 237 kts 60°
2026-04-23 16:14 53.69773 10.25769 2957 ft 242 kts 72°
2026-04-23 16:15 53.70106 10.28506 2980 ft 228 kts 73°
2026-04-23 16:15 53.70387 10.31042 2958 ft 213 kts 74°
2026-04-23 16:15 53.70732 10.33432 2943 ft 208 kts 57°
2026-04-23 16:15 53.71615 10.35103 2946 ft 195 kts 23°
2026-04-23 16:16 53.72887 10.35519 2945 ft 186 kts 347°
2026-04-23 16:16 53.73988 10.34485 2949 ft 186 kts 311°
2026-04-23 16:16 53.74453 10.32448 2951 ft 193 kts 277°
2026-04-23 16:16 53.74337 10.30151 2965 ft 199 kts 266°
2026-04-23 16:17 53.74087 10.27869 2965 ft 200 kts 264°
2026-04-23 16:17 53.73818 10.25529 2962 ft 200 kts 264°
2026-04-23 16:17 53.73546 10.23222 2957 ft 201 kts 264°
2026-04-23 16:17 53.73261 10.20937 2960 ft 202 kts 260°
2026-04-23 16:18 53.72730 10.18718 2922 ft 207 kts 245°
2026-04-23 16:18 53.71882 10.16751 2671 ft 206 kts 235°
2026-04-23 16:18 53.70961 10.14927 2380 ft 201 kts 236°
2026-04-23 16:18 53.70074 10.13118 2106 ft 200 kts 236°
2026-04-23 16:19 53.69200 10.11329 1822 ft 195 kts 236°
2026-04-23 16:19 53.68349 10.09601 1552 ft 187 kts 236°
2026-04-23 16:19 53.67552 10.07984 1321 ft 174 kts 236°
2026-04-23 16:19 53.66814 10.06487 1085 ft 158 kts 237°
2026-04-23 16:20 53.66137 10.05115 827 ft 146 kts 236°
2026-04-23 16:20 53.65508 10.03873 625 ft 133 kts 237°
2026-04-23 16:20 53.64929 10.02674 454 ft 131 kts 237°
2026-04-23 16:20 53.64341 10.01489 309 ft 132 kts 233°
2026-04-23 16:21 53.63763 10.00308 108 ft 128 kts 234°
2026-04-23 16:21 53.63225 9.99189 50 ft 107 kts 231°
2026-04-23 16:21 53.62913 9.98583 46 ft 25 kts 220°
2026-04-23 16:21 53.62786 9.98483 47 ft 18 kts 191°
2026-04-23 16:22 53.62774 9.98479 47 ft 0 kts 190°
2026-04-23 16:22 53.62751 9.98474 46 ft 6 kts 185°
2026-04-23 16:22 53.62723 9.98477 46 ft 1 kts 158°
2026-04-23 16:22 53.62692 9.98491 46 ft 9 kts 167°
2026-04-23 16:23 53.62621 9.98523 45 ft 10 kts 154°
2026-04-23 16:23 53.62560 9.98577 44 ft 10 kts 149°
2026-04-23 16:23 53.62521 9.98652 46 ft 8 kts 104°
2026-04-23 16:23 53.62524 9.98739 44 ft 8 kts 80°
2026-04-23 16:24 53.62536 9.98854 44 ft 12 kts 79°
2026-04-23 16:24 53.62553 9.99010 47 ft 15 kts 79°
2026-04-23 16:24 53.62577 9.99209 48 ft 19 kts 78°
2026-04-23 16:24 53.62603 9.99439 48 ft 20 kts 79°
2026-04-23 16:25 53.62629 9.99662 49 ft 19 kts 79°
2026-04-23 16:25 53.62680 9.99843 51 ft 16 kts 35°
2026-04-23 16:25 53.62778 9.99935 50 ft 16 kts 30°
2026-04-23 16:25 53.62867 10.00040 49 ft 12 kts 37°
2026-04-23 16:26 53.62911 10.00104 49 ft 0 kts 71°
2026-04-23 16:26 53.62915 10.00108 49 ft 3 kts 34°
2026-04-23 16:26 53.62944 10.00145 47 ft 3 kts 76°
2026-04-23 16:26 53.62939 10.00160 49 ft 3 kts 131°
2026-04-23 16:27 53.62899 10.00209 49 ft 5 kts 133°